Location: Bottenau
(48.5138°N, 8.0462°E)
Time: 04:32:41
(UTC+00:00)

Meteor 2-10 Rocket - Pass Details

Date: 18 April 2021
Orbit: 735 x 884 km, 81.2° (Epoch: 09 May)

Event Time Altitude Azimuth Distance (km) Brightness Sun altitude
Rises 19:36:06 0° 199° (SSW) 3,220 6.6 -11.7°
Reaches altitude 10° 19:38:26 10° 203° (SSW) 2,318 5.9 -12.0°
Maximum altitude 19:43:37 64° 284° (WNW) 885 4.1 -12.7°
Drops below altitude 10° 19:49:04 10° 7° (N) 2,433 6.5 -13.5°
Sets 19:51:34 0° 10° (N) 3,394 7.2 -13.8°
